Location: Drignac
(45.1667°N, 2.0333°E)
Time: 05:30:51
(UTC+00:00)

HJ-1C - Pass Details

Date: 29 March 2020
Orbit: 431 x 447 km, 97.2° (Epoch: 01 June)

Event Time Altitude Azimuth Distance (km) Brightness Sun altitude
Rises 19:08:35 0° 176° (S) 2,413 6.9 -9.8°
Reaches altitude 10° 19:10:37 10° 181° (S) 1,552 6.0 -10.2°
Maximum altitude 19:13:53 54° 260° (W) 548 4.2 -10.7°
Drops below altitude 10° 19:17:12 10° 339° (NNW) 1,576 6.7 -11.3°
Sets 19:19:17 0° 344° (NNW) 2,455 7.6 -11.7°
